E-STAR
1 38079U 12006C   12332.31326480  .00060952  00000-0  14366-2 0  6692
2 38079 069.4774 299.6259 0686895 039.9118 325.0422 14.27735000 40754
GOLIAT
1 38085U 12006J   12332.29288664  .00059021  00000-0  13818-2 0  6457
2 38085 069.4838 300.5947 0693892 040.4841 324.5678 14.26390261 40722
HORYU-2
1 38340U 12025D   12332.44311818  .00001868  00000-0  31651-3 0  2578
2 38340 098.1928 272.7069 0012766 167.7563 192.3908 14.70438698 28469
RS-40
1 38736U 12041D   12332.42553316  .00000010  00000-0  00000 0 0  1166
2 38736 082.4767 280.9236 0020119 050.2320 310.0535 12.42647991 15185
PROITERES
1 38756U 12047B   12332.44787642  .00001040  00000-0  16625-3 0  2661
2 38756 098.2767 039.5988 0013411 033.4018 326.8028 14.73995295 11679
AENEAS
1 38760U 0        12328.86854836  .00006322  00000-0  57472-3 0 00732
2 38760 064.6720 183.1573 0217864 269.5045 088.1078 14.79695270010483
CSSWE-D
1 38761U 0        12328.86725272  .00003876  00000-0  35886-3 0 00729
2 38761 064.6725 183.1541 0219021 269.8463 087.7546 14.79562629010484
CXBN-E
1 38762U 0        12328.86400051  .00004696  00000-0  43043-3 0 00696
2 38762 064.6739 183.1442 0218624 269.3484 088.2568 14.79673147010484
OBJECT F
1 38763U 0        12328.86475519  .00003710  00000-0  34376-3 0 00682
2 38763 064.6719 183.1378 0219183 269.7344 087.8645 14.79598814010322
CINEMA-G
1 38764U 0        12328.86384767  .00003915  00000-0  36183-3 0 00659
2 38764 064.6711 183.1300 0218874 269.7643 087.8353 14.79633893010488
CP5
1 38765U 0        12328.86065838  .00004806  00000-0  43995-3 0 00665
2 38765 064.6758 183.1131 0218123 269.1901 088.4035 14.79754588010489
RAIKO
1 38852U 98067CN  12332.54841703  .00041274  00000-0  59604-3 0   557
2 38852 051.6598 029.2002 0017199 329.7579 030.2383 15.55370058  8316
FITSAT 1
1 38853U 98067CP  12332.21473223  .00051019  00000-0  71513-3 0   551
2 38853 051.6587 030.7227 0015098 343.1282 016.9151 15.56123409  8319
TechEdSat
1 38854U 98067CQ  12332.44540524  .00074272  00000-0  97201-3 0   587
2 38854 051.6474 029.2575 0015367 347.4661 012.5460 15.57799903  8359
F 1
1 38855U 98067CR  12332.38474622  .00071099  00000-0  93643-3 0   621
2 38855 051.6501 029.5966 0017291 349.1798 010.8814 15.57610976  8239
WeWish
1 38856U 98067CS  12332.52956975  .00114695  00000-0  13186-2 0   661
2 38856 051.6480 028.3173 0019249 341.1869 018.8393 15.60930885  8260
/EX




More information about the Keps mailing list